Change the Weather History Date:

Monday, February 25, 2013

  Actual Average Record
Temperature  
Mean Temperature 22 °F 23 °F  
Max Temperature 36 °F 31 °F 49 °F (2000)
Min Temperature 7 °F 15 °F -23 °F (1928)
Degree Days  
Heating Degree Days 43 42  
Month to date heating degree days 1171 1129  
Since 1 July heating degree days 5336 5718  
Cooling Degree Days 0 0  
Month to date cooling degree days 0 0  
Year to date cooling degree days 0 0  
Moisture  
Dew Point 16 °F    
Average Humidity 82    
Maximum Humidity 100    
Minimum Humidity 64    
Precipitation  
Precipitation 0.00 in 0.05 in 0.86 in (2007)
Month to date precipitation 2.07 0.96  
Year to date precipitation 4.43 2.09  
Snow  
Snow 0.00 in 0.40 in 9.80 in (2007)
Month to date snowfall 16.5 8.9  
Since 1 July snowfall 55.6 39.2  
Snow Depth 10.00 in    
Sea Level Pressure  
Sea Level Pressure 30.15 in    
Wind  
Wind Speed 1 mph (SW)    
Max Wind Speed 7 mph    
Max Gust Speed 8 mph    
Visibility 3 miles    
Events Fog    
T = Trace of Precipitation, MM = Missing Value Source: NWS Daily Summary

Daily Weather History Graph

Daily Weather History Graph

Search for Another Location

Airport or City:

Trip Planner

Search our weather history database for the weather conditions in past years. The results will help you decide how hot, cold, wet, or windy it might be!

Date:

Astronomy

Feb. 25, 2013 Rise Set
Actual Time 6:36 AM CST 5:35 PM CST
Civil Twilight 6:06 AM CST 6:04 PM CST
Nautical Twilight 5:33 AM CST 6:38 PM CST
Astronomical Twilight 4:59 AM CST 7:12 PM CST
Moon 5:51 PM CST (2/25) 6:04 AM CST (2/25)
Length of Visible Light 11h 57m
Length of Day
10h 59m
Full, 100% of the Moon is Illuminated
Feb 25
Full
Feb 25
Full
Mar 4
Last Quarter
Mar 11
New
Mar 19
First Quarter

Hourly Weather History & Observations

Time (CST) Temp. Windchill Dew Point Humidity Pressure Visibility Wind Dir Wind Speed Gust Speed Precip Events Conditions
12:11 AM 17.1 °F - 12.9 °F 84% 30.12 in 4.0 mi Calm Calm - N/A   Overcast
12:38 AM 16.0 °F - 12.9 °F 88% 30.13 in 2.5 mi Calm Calm - N/A   Clear
12:53 AM 14.0 °F - 10.9 °F 88% 30.17 in 1.8 mi Calm Calm - N/A   Partly Cloudy
1:04 AM 15.1 °F - 12.9 °F 91% 30.13 in 0.2 mi Calm Calm - N/A Fog Light Freezing Fog
1:14 AM 17.1 °F - 14.0 °F 88% 30.14 in 1.0 mi Calm Calm - N/A   Scattered Clouds
1:53 AM 12.9 °F - 10.0 °F 88% 30.18 in 1.5 mi Calm Calm - N/A   Partly Cloudy
2:02 AM 12.9 °F - 10.0 °F 88% 30.14 in 2.0 mi Calm Calm - N/A   Mostly Cloudy
2:15 AM 12.0 °F 5.9 °F 8.1 °F 84% 30.14 in 0.5 mi SSW 3.5 mph - N/A Fog Light Freezing Fog
2:23 AM 10.0 °F 3.6 °F 7.0 °F 87% 30.14 in 0.2 mi SSW 3.5 mph - N/A Fog Light Freezing Fog
2:53 AM 9.0 °F - 8.1 °F 96% 30.17 in 0.2 mi Calm Calm - N/A Fog Light Freezing Fog
3:03 AM 10.0 °F - 8.1 °F 92% 30.13 in 0.2 mi Calm Calm - N/A Fog Light Freezing Fog
3:53 AM 9.0 °F - 6.1 °F 88% 30.17 in 0.2 mi Calm Calm - N/A Fog Light Freezing Fog
4:45 AM 9.0 °F - 6.1 °F 88% 30.13 in 0.2 mi Calm Calm - N/A Fog Light Freezing Fog
4:53 AM 8.1 °F - 6.1 °F 92% 30.17 in 0.2 mi Calm Calm - N/A Fog Light Freezing Fog
5:53 AM 8.1 °F - 6.1 °F 92% 30.19 in 0.2 mi Calm Calm - N/A Fog Light Freezing Fog
6:09 AM 8.1 °F 1.4 °F 5.0 °F 87% 30.14 in 1.0 mi West 3.5 mph - N/A   Overcast
6:12 AM 9.0 °F 2.4 °F 5.0 °F 84% 30.14 in 3.0 mi West 3.5 mph - N/A   Mostly Cloudy
6:17 AM 9.0 °F 2.4 °F 5.0 °F 84% 30.14 in 2.0 mi West 3.5 mph - N/A   Mostly Cloudy
6:24 AM 8.1 °F 1.4 °F 3.9 °F 83% 30.15 in 1.5 mi West 3.5 mph - N/A   Mostly Cloudy
6:29 AM 8.1 °F 1.4 °F 5.0 °F 87% 30.15 in 3.0 mi West 3.5 mph - N/A   Scattered Clouds
6:42 AM 10.0 °F - 6.1 °F 84% 30.15 in 2.5 mi Calm Calm - N/A   Mostly Cloudy
6:53 AM 10.9 °F - 8.1 °F 88% 30.20 in 2.5 mi Calm Calm - N/A   Mostly Cloudy
7:53 AM 17.1 °F - 14.0 °F 88% 30.19 in 2.5 mi Calm Calm - N/A   Overcast
8:53 AM 21.0 °F - 19.9 °F 96% 30.19 in 2.0 mi Calm Calm - N/A   Mostly Cloudy
9:02 AM 21.9 °F - 21.9 °F 100% 30.15 in 3.0 mi Calm Calm - N/A   Mostly Cloudy
9:53 AM 26.1 °F - 25.0 °F 96% 30.20 in 3.0 mi Calm Calm - N/A   Overcast
10:00 AM 27.0 °F - 25.0 °F 92% 30.15 in 2.5 mi Calm Calm - N/A   Overcast
10:07 AM 27.0 °F - 25.0 °F 92% 30.15 in 3.0 mi Calm Calm - N/A   Overcast
10:53 AM 28.9 °F - 25.0 °F 85% 30.19 in 3.0 mi Calm Calm - N/A   Mostly Cloudy
11:53 AM 32.0 °F 28.7 °F 24.1 °F 73% 30.18 in 6.0 mi South 3.5 mph - N/A   Haze
12:53 PM 33.1 °F 28.7 °F 24.1 °F 70% 30.16 in 6.0 mi SSE 4.6 mph - N/A   Haze
1:53 PM 34.0 °F 31.0 °F 24.1 °F 67% 30.15 in 6.0 mi South 3.5 mph - N/A   Haze
2:53 PM 35.1 °F 31.0 °F 24.1 °F 64% 30.14 in 8.0 mi WSW 4.6 mph - N/A   Overcast
3:53 PM 35.1 °F - 24.1 °F 64% 30.14 in 8.0 mi Calm Calm - N/A   Overcast
4:53 PM 34.0 °F - 25.0 °F 70% 30.14 in 7.0 mi Calm Calm - N/A   Overcast
5:53 PM 33.1 °F - 24.1 °F 70% 30.14 in 7.0 mi Calm Calm - N/A   Overcast
6:53 PM 30.9 °F - 23.0 °F 72% 30.14 in 7.0 mi Calm Calm - N/A   Clear
7:53 PM 28.4 °F - 21.2 °F 74% 30.09 in 6.0 mi Calm Calm - N/A   Haze
8:53 PM 26.1 °F - 21.9 °F 84% 30.12 in 5.0 mi Calm Calm - N/A   Mostly Cloudy
9:53 PM 23.0 °F - 19.9 °F 88% 30.11 in 4.0 mi Calm Calm - N/A   Clear
10:53 PM 24.1 °F - 21.0 °F 88% 30.13 in 4.0 mi Calm Calm - N/A   Overcast
11:53 PM 25.0 °F 20.7 °F 21.0 °F 85% 30.13 in 4.0 mi East 3.5 mph - N/A   Mostly Cloudy